Regional Weather Roundup
Issued by NWS Wakefield, VA

Home | Current Version | Previous Version | Graphics & Text | Print | Product List | Glossary On
Versions: 1 2 3 4 5 6 7 8 9 10 11 12 13 14 15 16 17 18 19 20 21 22 23 24 25 26 27 28 29 30 31 32 33 34 35 36 37 38 39 40 41 42 43 44 45 46 47 48 49 50
000
ASUS41 KAKQ 012110
RWRAKQ

REGIONAL WEATHER ROUNDUP
NATIONAL WEATHER SERVICE WAKEFIELD VA
500 PM EDT MON SEP 01 2014

Note: "fair" indicates few or no clouds below 12,000 feet with no
significant weather and/or obstructions to visibility. * = Denotes
station may not report precipitation (e.g., rain,snow,etc.),
thunder or fog.

VAZ042-051-052>054-056-012200-
NORTHERN VIRGINIA

CITY           SKY/WX    TMP DP  RH WIND       PRES   REMARKS
WASH NATIONAL  CLOUDY    84  70  61 CALM      29.96R
DULLES         MOSUNNY   83  72  69 CALM      29.96F
FORT BELVOIR   PTSUNNY   89  73  58 W1        29.95F HX  97
QUANTICO       MOSUNNY   83  74  74 CALM      29.96F
FREDERICKSBRG* LGT RAIN  83  75  76 W3        29.95F
STAFFORD*      MOSUNNY   85  73  68 CALM      30.00F
WARRENTON      NOT AVBL
CULPEPER*      MOSUNNY  N/A N/A N/A E3        29.95F
MANASSAS*      NOT AVBL
LEESBURG*      MOSUNNY   84  73  70 CALM      29.97F
WINCHESTER     SUNNY     90  64  43 SW6       29.96F
$$

VAZ048-049-060>072-079>083-012200-
CENTRAL AND SOUTH CENTRAL VIRGINIA...AND NORTH CENTRAL NORTH CAROLINA

CITY           SKY/WX    TMP DP  RH WIND       PRES   REMARKS
RICHMOND       PTSUNNY   93  69  45 SW10      29.96F HX  98
CHESTERFIELD*  PTCLDY    91  66  43 W7        29.99F
PETERSBURG*    MOSUNNY   89  69  50 SW7       29.99F
HANOVER        MOSUNNY   94  70  45 W12       29.98F HX 100
TAPPAHANNOCK*  SUNNY     95  61  31 W3        29.96F HX  95
CHARLOTTSVILLE SUNNY     90  68  48 VRB3      29.97F
ORANGE*        MOSUNNY   90  68  48 S6        29.98S
LOUISA*        SUNNY     90  73  58 SE3       29.97S HX  98
FARMVILLE*     SUNNY     91  66  43 W7        29.97F
SOUTH HILL*    PTSUNNY   90  72  55 SW5       30.07F HX  96
ROANOKE RAPIDS MOCLDY    90  68  48 W8        30.01F
RALEIGH        PTSUNNY   89  70  53 W6        30.04F
$$

VAZ088>098-012200-
SOUTHEAST VIRGINIA

CITY           SKY/WX    TMP DP  RH WIND       PRES   REMARKS
NORFOLK        MOSUNNY   93  70  46 S13       29.97F HX  99
VIRGINIA BEACH PTSUNNY   92  72  51 SW14      29.97F HX  99
NORFOLK NAVAL  PTSUNNY   93  72  50 SW12G17   29.99S HX 101
WEST POINT*    MOSUNNY   94  68  43 SW7       29.97F HX  98
NEWPORT NEWS   PTSUNNY   94  74  52 SW13      29.97F HX 104
LANGLEY AFB    PTSUNNY   90  74  58 W12G23    29.97S HX  99
FORT EUSTIS    PTSUNNY   91  70  50 SW8       29.96F HX  96
WILLIAMSBURG*  PTSUNNY   95  73  49 W12       29.97F HX 105
FRANKLIN*      MOSUNNY   91  72  52 SW8       29.99S HX  98
WAKEFIELD      PTSUNNY   91  71  51 W6        29.98F HX  97
$$

VAZ020-022-025-037-045-012200-
WESTERN AND SOUTHWEST VIRGINIA

CITY           SKY/WX    TMP DP  RH WIND       PRES   REMARKS
STAUNTON*      PTSUNNY   88  63  42 S5        30.01F
HOT SPRINGS VA MOSUNNY   74  59  59 W12       30.20S
LYNCHBURG      SUNNY     87  69  54 VRB6      30.04F
DANVILLE       MOSUNNY   92  66  42 W9        30.03F
MARTINSVILLE   MOSUNNY   88  67  49 SW6       30.07F
ROANOKE        MOSUNNY   88  62  41 W10       30.06S
BLACKSBURG     MOSUNNY   84  66  54 W7        30.13S
DUBLIN*        MOSUNNY   83  66  56 SW6       30.13S
MARION*        MOSUNNY  N/A N/A N/A W12       30.17S
HILLSVILLE*    MOSUNNY   81  63  53 SW8       30.16F
RICHLANDS*     PTCLDY    83  67  59 SW8       30.16S
WISE*          MOSUNNY   81  64  57 S9        30.16F
ABINGDON*      SUNNY     86  65  48 W9        30.12F
$$

MDZ021>025-VAZ099-100-012200-
SOUTHERN MARYLAND AND THE DELMARVA PENINSULA

CITY           SKY/WX    TMP DP  RH WIND       PRES   REMARKS
PATUXENT RIVER PTSUNNY   86  76  71 SE7       29.95S HX  96
BAY BRIDGE APT   N/A     86  72  62 S6        29.95S
LEONARDTOWN    PTSUNNY   91  68  46 NW8       29.97S HX  95
DOVER          PTSUNNY   85  77  76 E6        29.94F HX  96
GEORGETOWN     SUNNY     90  72  55 SW8       29.96S HX  97
EASTON         PTSUNNY   90  73  58 SW7       29.99F HX  98
CAMBRIDGE      NOT AVBL
SALISBURY      MOSUNNY   92  73  53 SW9       29.96F HX 100
OCEAN CITY     MOSUNNY   84  77  79 S9        29.97S
WALLOPS ISLAND MOSUNNY   83  77  82 SW14      29.98F
ACCOMACK*      NOT AVBL
$$

NCZ012>017-030>032-012200-
EASTERN NORTH CAROLINA

CITY           SKY/WX    TMP DP  RH WIND       PRES   REMARKS
ELIZABETH CITY MOSUNNY   90  72  55 SW13      30.00F HX  97
AHOSKIE*       MOSUNNY   89  68  49 CALM      30.01S
EDENTON*       MOSUNNY   91  73  56 W6        30.01F HX  99
CURRITUCK*     MOSUNNY   91  71  51 S7        30.00F HX  97
KILL DEVIL HLS MOSUNNY   88  76  67 S7        30.01S HX  98
MANTEO         MOSUNNY   86  77  74 S16       30.03S HX  97
CAPE HATTERAS  SUNNY     84  77  79 SW12G18   30.06F
GOLDSBORO      MOSUNNY   94  75  54 SW6       30.00F HX 104
WASHINGTON     MOSUNNY   92  71  49 W9        30.02F HX  98
GREENVILLE     MOSUNNY   91  72  52 W6        30.03F HX  98
NEW BERN       MOSUNNY   92  77  61 S9        30.04F HX 105
WILMINGTON     MOSUNNY   89  75  63 S12       30.05S THUNDER HX  99
$$

VAZ048-012200-
ELSEWHERE

CITY           SKY/WX    TMP DP  RH WIND       PRES   REMARKS
HARRISBURG PA  PTSUNNY   83  75  77 CALM      29.94S
BALTIMORE      CLOUDY    85  71  63 W12       29.95S
ANNAPOLIS      PTSUNNY   84  73  69 S8        29.94S
ANDREWS AFB    CLOUDY    84  73  70 W8        29.95F
WILMINGTON DE  MOSUNNY   86  74  67 S9        29.95F
PHILADELPHIA   MOSUNNY   89  70  53 SW9       29.94F
WILDWOOD NJ*   CLOUDY    81  72  74 SE7       29.98F
ATLANTIC CITY  PTSUNNY   84  73  69 S10       29.95F
HENDERSON NC   PTSUNNY   86  68  55 CALM      30.04S
GREENSBORO     MOSUNNY   92  63  38 W10       30.05F
ROCKY MOUNT    MOSUNNY   92  71  50 SW9       30.02F HX  98
FAYETTEVILLE   MOSUNNY   95  70  44 E8        30.01F HX 101
CHARLOTTE      PTSUNNY   92  66  42 W7        30.06F
$$

VAZ100-012200-
MARINE

STATION/POSITION TIME  TEMP    WIND        PRES    WAVE   SWELL
                       AIR SEA DIR/SP/G            HT/PER HT/PER
                 (UTC) (F)     (DEG/KT/KT) (MB)    (FT/S) (FT/S)
44066 TX TWR #4  2100   75 75  220/ 10/ 12 1014.9F   3/ 5   3/ 5
CAPE MAY NJ      2100   78 80  110/  6/  8 1014.3F
LEWES DE         2100   88 78  190/  4/  7 1014.0S
15NM E FENWICK I 2100   78 75              1014.6F   3/ 8
OCEAN-CITY-INLET 2100   79 77  210/ 12/ 15 1014.6R
WACHAPREAGUE VA  2100   83 84  240/  5/  9 1015.3F
THOMAS POINT MD  2100   82 79  180/ 11/ 11 1014.8F
GOOSES REEF MD   2100   81     190/ 10/ 12 1014.8F
COVE POINT MD    2100   80     170/  8/  9 1014.2F
SOLOMONS ISLAND  2100      80                N/A
BISHOPS HEAD MD  2100   83 86  160/  8/  9 1014.3S
PINEY POINT MD   2100           CALM  /  1   N/A
POTOMAC MD       2100   85     120/  6/  8 1013.8R
CAMBRIDGE MD     2100   89 79  190/  5/  7 1014.0F
LEWISETTA VA     2100   85 80   70/  7/  8 1014.0F
RAPPAHANNOCK LGT 2100          200/ 25/ 29 1015.7F
STINGRAY PT      2100   78     150/ 16/ 21   N/A
YORK RVR RNG VA  2100   85     240/  9/ 11 1014.4R
YORKTOWN VA      2100   88 81  230/  9/ 12 1014.5S
JAMESTOWN VA     2100   87     260/ 12/ 16   N/A
DOMINION TERM VA 2100   87     240/ 13/ 17 1015.1F
KIPTOPEKE VA     2100      83  220/  7/  8   N/A
CHES BAY BRIDGE  2100   89 79  210/ 15/ 16 1014.3F
CAPE HENRY VA    2100   91     210/  7/ 13 1013.9S
CHESAPEAKE LGHT  2000   82     180/ 19/ 21 1015.8F
WILLOUBY STN VA  2100   87     250/  7/  8 1013.8F
S CRANEY ISL VA  2100          230/ 11/ 19 1014.7F
CAPE HENRY BUOY  2100      81                N/A     3/10
1ST LANDING BUOY 2100   87     230/ 10/ 12 1014.8R
CAPE CHARLES BUO 2100      80                N/A     3/11   2/11
OFFSHORE WE BUOY 2100      79                N/A     3/ 9   2/ 9
64NM E OF VA BCH 2100   79 78  190/ 14/ 16 1016.3F   3/10   2/10
DUCK PIER NC     2100   88 75  180/  9/ 12 1015.4F
44056 DUCK FRF   2100                        N/A     2/ 9   2/13
OREGON INLET NC  2100   83 84  190/ 17/ 22 1017.0S
HATTERAS NC      2100   84 84  200/ 11/ 15 1018.4R
DIAMOND SHLS NC  2100   82     200/ 16/ 17 1017.8F   3/ 9   2/ 9
CAPE LOOKOUT NC  2000   83     200/ 11/ 13 1018.1F
$$


USA.gov is the U.S. government's official web portal to all federal, state and local government web resources and services.